| time (UTC) | temp F | wind direction | speed MPH | gust MPH | rain 1hr in | rain 24hr in | rain mn in | humidity % | barometer mb |
| 20260902203104 | 76 | 287 | 2.0 | 3.0 | 0.00 | 0.00 | 0.00 | 59 | 1023.9 |
| 20260902202106 | 76 | 311 | 1.0 | 2.0 | 0.00 | 0.00 | 0.00 | 59 | 1023.8 |
| 20260902201105 | 76 | 289 | 2.0 | 3.0 | 0.00 | 0.00 | 0.00 | 59 | 1023.9 |
| 20260902200104 | 76 | 299 | 3.0 | 4.0 | 0.00 | 0.00 | 0.00 | 59 | 1023.8 |
| 20260902195104 | 76 | 312 | 3.0 | 4.0 | 0.00 | 0.00 | 0.00 | 59 | 1023.7 |
| 20260902194104 | 76 | 289 | 4.0 | 6.0 | 0.00 | 0.00 | 0.00 | 59 | 1023.7 |
| 20260902193104 | 77 | 283 | 3.0 | 4.0 | 0.00 | 0.00 | 0.00 | 58 | 1023.8 |
| 20260902192105 | 77 | 277 | 3.0 | 4.0 | 0.00 | 0.00 | 0.00 | 58 | 1023.8 |
| 20260902191104 | 77 | 309 | 3.0 | 4.0 | 0.00 | 0.00 | 0.00 | 60 | 1023.7 |
| 20260902190125 | 77 | 299 | 3.0 | 4.0 | 0.00 | 0.00 | 0.00 | 61 | 1023.7 |
| 20260902185124 | 77 | 293 | 4.0 | 9.0 | 0.00 | 0.00 | 0.00 | 61 | 1023.8 |
| 20260902184104 | 77 | 314 | 4.0 | 8.0 | 0.00 | 0.00 | 0.00 | 62 | 1023.6 |
| 20260902183125 | 77 | 288 | 4.0 | 7.0 | 0.00 | 0.00 | 0.00 | 64 | 1023.4 |
| 20260902182104 | 77 | 312 | 4.0 | 6.0 | 0.00 | 0.00 | 0.00 | 65 | 1023.4 |
| 20260902181104 | 77 | 307 | 5.0 | 8.0 | 0.00 | 0.00 | 0.00 | 65 | 1023.3 |
| 20260902180104 | 78 | 308 | 6.0 | 8.0 | 0.00 | 0.00 | 0.00 | 65 | 1023.4 |
| 20260902175104 | 78 | 305 | 6.0 | 9.0 | 0.00 | 0.00 | 0.00 | 64 | 1023.4 |
| 20260902174106 | 79 | 334 | 5.0 | 9.0 | 0.00 | 0.00 | 0.00 | 63 | 1023.3 |
| 20260902173104 | 79 | 291 | 6.0 | 10.0 | 0.00 | 0.00 | 0.00 | 61 | 1023.1 |
| 20260902172104 | 80 | 321 | 7.0 | 10.0 | 0.00 | 0.00 | 0.00 | 60 | 1023.1 |
| 20260902171104 | 80 | 302 | 6.0 | 10.0 | 0.00 | 0.00 | 0.00 | 59 | 1023.1 |
| 20260902170104 | 81 | 335 | 7.0 | 10.0 | 0.00 | 0.00 | 0.00 | 59 | 1023.1 |
| 20260902165104 | 81 | 288 | 7.0 | 13.0 | 0.00 | 0.00 | 0.00 | 58 | 1023.2 |
| 20260902164104 | 82 | 325 | 6.0 | 13.0 | 0.00 | 0.00 | 0.00 | 56 | 1023.3 |
| 20260902163104 | 82 | 300 | 6.0 | 10.0 | 0.00 | 0.00 | 0.00 | 55 | 1023.2 |
| 20260902162104 | 83 | 309 | 5.0 | 8.0 | 0.00 | 0.00 | 0.00 | 52 | 1023.0 |
| 20260902161104 | 84 | 349 | 5.0 | 10.0 | 0.00 | 0.00 | 0.00 | 49 | 1023.1 |
| 20260902160124 | 84 | 10 | 4.0 | 7.0 | 0.00 | 0.00 | 0.00 | 48 | 1023.1 |
| 20260902155104 | 85 | 310 | 6.0 | 9.0 | 0.00 | 0.00 | 0.00 | 47 | 1023.1 |
| 20260902154104 | 85 | 63 | 2.0 | 6.0 | 0.00 | 0.00 | 0.00 | 46 | 1023.0 |
| 20260902153104 | 86 | 48 | 2.0 | 4.0 | 0.00 | 0.00 | 0.00 | 45 | 1023.1 |
| 20260902152104 | 86 | 73 | 1.0 | 4.0 | 0.00 | 0.00 | 0.00 | 44 | 1023.3 |
| 20260902151104 | 86 | 38 | 2.0 | 4.0 | 0.00 | 0.00 | 0.00 | 42 | 1023.4 |
| 20260902150105 | 85 | 45 | 3.0 | 9.0 | 0.00 | 0.00 | 0.00 | 44 | 1023.4 |
| 20260902145104 | 86 | 336 | 4.0 | 10.0 | 0.00 | 0.00 | 0.00 | 42 | 1023.4 |
| 20260902144103 | 87 | 290 | 3.0 | 10.0 | 0.00 | 0.00 | 0.00 | 41 | 1023.4 |
| 20260902143204 | 87 | 340 | 5.0 | 10.0 | 0.00 | 0.00 | 0.00 | 40 | 1023.4 |
| 20260902142104 | 87 | 254 | 4.0 | 7.0 | 0.00 | 0.00 | 0.00 | 37 | 1023.4 |
| 20260902141125 | 87 | 342 | 6.0 | 11.0 | 0.00 | 0.00 | 0.00 | 39 | 1023.4 |
| 20260902140104 | 87 | 264 | 5.0 | 9.0 | 0.00 | 0.00 | 0.00 | 29 | 1023.4 |
| 20260902135104 | 88 | 267 | 3.0 | 10.0 | 0.00 | 0.00 | 0.00 | 29 | 1023.5 |
| 20260902134104 | 88 | 298 | 3.0 | 9.0 | 0.00 | 0.00 | 0.00 | 28 | 1023.7 |
| 20260902133104 | 88 | 330 | 6.0 | 14.0 | 0.00 | 0.00 | 0.00 | 26 | 1023.7 |
| 20260902132105 | 88 | 273 | 3.0 | 9.0 | 0.00 | 0.00 | 0.00 | 26 | 1023.9 |
| 20260902131105 | 87 | 327 | 5.0 | 11.0 | 0.00 | 0.00 | 0.00 | 27 | 1024.0 |
| 20260902130124 | 89 | 22 | 1.0 | 2.0 | 0.00 | 0.00 | 0.00 | 27 | 1024.1 |
| 20260902125106 | 88 | 328 | 2.0 | 4.0 | 0.00 | 0.00 | 0.00 | 27 | 1024.2 |
| 20260902124104 | 87 | 329 | 2.0 | 8.0 | 0.00 | 0.00 | 0.00 | 26 | 1024.3 |
| 20260902123104 | 89 | 155 | 1.0 | 2.0 | 0.00 | 0.00 | 0.00 | 28 | 1024.2 |
| 20260902122105 | 88 | 192 | 1.0 | 3.0 | 0.00 | 0.00 | 0.00 | 29 | 1024.3 |
| 20260902121124 | 88 | 40 | 2.0 | 4.0 | 0.00 | 0.00 | 0.00 | 31 | 1024.4 |
| 20260902120104 | 87 | 352 | 2.0 | 8.0 | 0.00 | 0.00 | 0.00 | 32 | 1024.5 |
| 20260902115105 | 87 | 25 | 4.0 | 9.0 | 0.00 | 0.00 | 0.00 | 34 | 1024.7 |
| 20260902114104 | 87 | 36 | 3.0 | 8.0 | 0.00 | 0.00 | 0.00 | 34 | 1024.7 |
| 20260902113104 | 86 | 307 | 2.0 | 6.0 | 0.00 | 0.00 | 0.00 | 35 | 1024.7 |
| 20260902112105 | 86 | 346 | 2.0 | 7.0 | 0.00 | 0.00 | 0.00 | 35 | 1024.8 |
| 20260902111104 | 86 | 318 | 4.0 | 7.0 | 0.00 | 0.00 | 0.00 | 35 | 1024.9 |
| 20260902110104 | 88 | 116 | 1.0 | 3.0 | 0.00 | 0.00 | 0.00 | 34 | 1024.8 |
| 20260902105104 | 86 | 292 | 3.0 | 10.0 | 0.00 | 0.00 | 0.00 | 36 | 1024.9 |
| 20260902104104 | 87 | 118 | 1.0 | 4.0 | 0.00 | 0.00 | 0.00 | 35 | 1025.0 |
| 20260902103104 | 86 | 350 | 3.0 | 6.0 | 0.00 | 0.00 | 0.00 | 36 | 1025.1 |
| 20260902102105 | 87 | 86 | 2.0 | 6.0 | 0.00 | 0.00 | 0.00 | 35 | 1025.1 |
| 20260902101125 | 87 | 335 | 2.0 | 7.0 | 0.00 | 0.00 | 0.00 | 35 | 1025.0 |
| 20260902100104 | 87 | 104 | 0.0 | 2.0 | 0.00 | 0.00 | 0.00 | 35 | 1025.2 |
| 20260902095104 | 86 | 122 | 1.0 | 2.0 | 0.00 | 0.00 | 0.00 | 35 | 1025.2 |
| 20260902094104 | 85 | 144 | 0.0 | 1.0 | 0.00 | 0.00 | 0.00 | 36 | 1025.3 |
| 20260902093104 | 85 | 144 | 0.0 | 1.0 | 0.00 | 0.00 | 0.00 | 36 | 1025.1 |
| 20260902092125 | 86 | 0.0 | 0.0 | 0.00 | 0.00 | 0.00 | 38 | 1025.0 | |
| 20260902091105 | 87 | 111 | 1.0 | 3.0 | 0.00 | 0.00 | 0.00 | 37 | 1025.1 |
| 20260902090104 | 86 | 0.0 | 0.0 | 0.00 | 0.00 | 0.00 | 38 | 1025.1 | |
| 20260902085104 | 85 | 166 | 0.0 | 1.0 | 0.00 | 0.00 | 0.00 | 41 | 1025.0 |
| 20260902084124 | 85 | 123 | 0.0 | 2.0 | 0.00 | 0.00 | 0.00 | 40 | 1025.0 |
| 20260902083103 | 85 | 133 | 0.0 | 3.0 | 0.00 | 0.00 | 0.00 | 40 | 1025.0 |
| 20260902082125 | 84 | 117 | 0.0 | 1.0 | 0.00 | 0.00 | 0.00 | 39 | 1024.9 |
| 20260902081126 | 83 | 128 | 0.0 | 1.0 | 0.00 | 0.00 | 0.00 | 40 | 1024.9 |
| 20260902080105 | 83 | 127 | 0.0 | 2.0 | 0.00 | 0.00 | 0.00 | 40 | 1024.8 |
| 20260902075105 | 82 | 131 | 0.0 | 1.0 | 0.00 | 0.00 | 0.00 | 42 | 1024.7 |
| 20260902074124 | 79 | 0.0 | 0.0 | 0.00 | 0.00 | 0.00 | 47 | 1024.7 | |
| 20260902073104 | 79 | 0.0 | 0.0 | 0.00 | 0.00 | 0.00 | 52 | 1024.6 | |
| 20260902072105 | 79 | 0.0 | 0.0 | 0.00 | 0.00 | 0.00 | 47 | 1024.4 | |
| 20260902071124 | 78 | 0.0 | 0.0 | 0.00 | 0.00 | 0.00 | 42 | 1024.4 | |
| 20260902070104 | 79 | 0.0 | 0.0 | 0.00 | 0.00 | 0.00 | 44 | 1024.4 | |
| 20260902065125 | 78 | 0.0 | 0.0 | 0.00 | 0.00 | 0.00 | 40 | 1024.3 | |
| 20260902064125 | 78 | 0.0 | 0.0 | 0.00 | 0.00 | 0.00 | 44 | 1024.2 | |
| 20260902063105 | 78 | 0.0 | 0.0 | 0.00 | 0.00 | 0.00 | 45 | 1024.2 | |
| 20260902062104 | 79 | 0.0 | 0.0 | 0.00 | 0.00 | 0.00 | 41 | 1023.9 | |
| 20260902061104 | 79 | 144 | 2.0 | 3.0 | 0.00 | 0.00 | 0.00 | 37 | 1024.0 |
| 20260902060104 | 77 | 0.0 | 1.0 | 0.00 | 0.00 | 0.00 | 42 | 1023.9 | |
| 20260902055147 | 77 | 150 | 2.0 | 3.0 | 0.00 | 0.00 | 0.00 | 43 | 1023.9 |
| 20260902054104 | 77 | 147 | 0.0 | 2.0 | 0.00 | 0.00 | 0.00 | 44 | 1024.0 |
| 20260902053104 | 77 | 166 | 0.0 | 2.0 | 0.00 | 0.00 | 0.00 | 42 | 1024.0 |
| 20260902052124 | 77 | 153 | 2.0 | 3.0 | 0.00 | 0.00 | 0.00 | 40 | 1023.9 |
| 20260902051104 | 77 | 146 | 3.0 | 4.0 | 0.00 | 0.00 | 0.00 | 41 | 1023.9 |
| 20260902050104 | 77 | 156 | 3.0 | 4.0 | 0.00 | 0.00 | 0.00 | 41 | 1023.9 |
| 20260902045104 | 75 | 152 | 3.0 | 4.0 | 0.00 | 0.00 | 0.00 | 44 | 1023.8 |
| 20260902044105 | 73 | 145 | 0.0 | 2.0 | 0.00 | 0.00 | 0.00 | 53 | 1024.1 |
| 20260902043105 | 73 | 0.0 | 0.0 | 0.00 | 0.00 | 0.00 | 53 | 1024.0 | |
| 20260902042104 | 75 | 0.0 | 0.0 | 0.00 | 0.00 | 0.00 | 45 | 1023.9 | |
| 20260902041104 | 75 | 0.0 | 0.0 | 0.00 | 0.00 | 0.00 | 45 | 1023.8 | |
| 20260902040104 | 75 | 0.0 | 0.0 | 0.00 | 0.00 | 0.00 | 44 | 1023.8 | |
| 20260902035124 | 76 | 0.0 | 0.0 | 0.00 | 0.00 | 0.00 | 46 | 1023.5 | |
| 20260902034105 | 75 | 0.0 | 0.0 | 0.00 | 0.00 | 0.00 | 48 | 1023.7 | |
| 20260902033104 | 74 | 0.0 | 0.0 | 0.00 | 0.00 | 0.00 | 53 | 1023.6 | |
| 20260902032124 | 74 | 0.0 | 0.0 | 0.00 | 0.00 | 0.00 | 60 | 1023.6 | |
| 20260902031104 | 73 | 0.0 | 1.0 | 0.00 | 0.00 | 0.00 | 61 | 1023.8 | |
| 20260902030104 | 74 | 0.0 | 0.0 | 0.00 | 0.00 | 0.00 | 59 | 1023.6 | |
| 20260902025104 | 75 | 170 | 1.0 | 2.0 | 0.00 | 0.00 | 0.00 | 53 | 1023.8 |
| 20260902024104 | 76 | 0.0 | 0.0 | 0.00 | 0.00 | 0.00 | 45 | 1023.7 | |
| 20260902023104 | 76 | 0.0 | 0.0 | 0.00 | 0.00 | 0.00 | 41 | 1023.5 | |
| 20260902022105 | 76 | 0.0 | 0.0 | 0.00 | 0.00 | 0.00 | 43 | 1023.5 | |
| 20260902021104 | 75 | 142 | 0.0 | 2.0 | 0.00 | 0.00 | 0.00 | 46 | 1023.5 |
| 20260902020104 | 75 | 0.0 | 1.0 | 0.00 | 0.00 | 0.00 | 54 | 1023.4 | |
| 20260902015144 | 74 | 0.0 | 0.0 | 0.00 | 0.00 | 0.00 | 48 | 1023.5 | |
| 20260902014104 | 74 | 0.0 | 0.0 | 0.00 | 0.00 | 0.00 | 54 | 1023.4 | |
| 20260902013104 | 74 | 0.0 | 0.0 | 0.00 | 0.00 | 0.00 | 52 | 1023.7 | |
| 20260902012104 | 75 | 130 | 0.0 | 2.0 | 0.00 | 0.00 | 0.00 | 50 | 1023.6 |
| 20260902011126 | 75 | 0.0 | 0.0 | 0.00 | 0.00 | 0.00 | 50 | 1023.6 | |
| 20260902005104 | 75 | 289 | 1.0 | 4.0 | 0.00 | 0.00 | 0.00 | 55 | 1023.9 |
| 20260902004104 | 75 | 306 | 1.0 | 3.0 | 0.00 | 0.00 | 0.00 | 55 | 1023.9 |
| 20260902003106 | 74 | 0.0 | 0.0 | 0.00 | 0.00 | 0.00 | 54 | 1023.8 | |
| 20260902002105 | 75 | 0.0 | 0.0 | 0.00 | 0.00 | 0.00 | 54 | 1023.7 | |
| 20260902001103 | 74 | 0.0 | 0.0 | 0.00 | 0.00 | 0.00 | 55 | 1023.9 | |
| 20260901235103 | 75 | 0.0 | 0.0 | 0.00 | 0.00 | 0.00 | 54 | 1024.1 | |
| 20260901234106 | 76 | 0.0 | 0.0 | 0.00 | 0.00 | 0.00 | 53 | 1024.0 | |
| 20260901233103 | 77 | 0.0 | 0.0 | 0.00 | 0.00 | 0.00 | 49 | 1024.1 | |
| 20260901232125 | 77 | 0.0 | 0.0 | 0.00 | 0.00 | 0.00 | 47 | 1024.0 | |
| 20260901231103 | 77 | 0.0 | 0.0 | 0.00 | 0.00 | 0.00 | 44 | 1024.1 | |
| 20260901225123 | 76 | 0.0 | 0.0 | 0.00 | 0.00 | 0.00 | 54 | 1023.8 | |
| 20260901224104 | 76 | 0.0 | 0.0 | 0.00 | 0.00 | 0.00 | 60 | 1024.0 | |
| 20260901223103 | 76 | 0.0 | 0.0 | 0.00 | 0.00 | 0.00 | 60 | 1023.9 | |
| 20260901222103 | 77 | 0.0 | 0.0 | 0.00 | 0.00 | 0.00 | 56 | 1024.2 | |
| 20260901221124 | 77 | 0.0 | 0.0 | 0.00 | 0.00 | 0.00 | 53 | 1024.0 | |
| 20260901220104 | 78 | 0.0 | 0.0 | 0.00 | 0.00 | 0.00 | 51 | 1024.1 | |
| 20260901215103 | 78 | 276 | 0.0 | 2.0 | 0.00 | 0.00 | 0.00 | 51 | 1024.1 |
| 20260901214105 | 79 | 302 | 0.0 | 2.0 | 0.00 | 0.00 | 0.00 | 51 | 1024.1 |
| 20260901213124 | 79 | 273 | 2.0 | 3.0 | 0.00 | 0.00 | 0.00 | 51 | 1024.0 |
| 20260901212103 | 79 | 240 | 2.0 | 3.0 | 0.00 | 0.00 | 0.00 | 53 | 1024.1 |
| 20260901211104 | 78 | 310 | 3.0 | 4.0 | 0.00 | 0.00 | 0.00 | 55 | 1024.0 |
| 20260901210105 | 77 | 292 | 2.0 | 4.0 | 0.00 | 0.00 | 0.00 | 60 | 1024.1 |
| 20260901205104 | 77 | 148 | 2.0 | 3.0 | 0.00 | 0.00 | 0.00 | 62 | 1024.0 |
| 20260901204103 | 77 | 247 | 2.0 | 3.0 | 0.00 | 0.00 | 0.00 | 61 | 1024.2 |